Location: Cerda�ola
(41.4919°N, 2.1403°E)
Time: 13:44:58
(UTC+00:00)

Envisat - Visible Passes

Search period start: 25 February 2021 00:00
Search period end: 07 March 2021 00:00
Orbit: 764 x 766 km, 98.1° (Epoch: 24 February)

Date Brightness Start Highest point End Pass type
(mag) Time Alt. Az. Time Alt. Az. Time Alt. Az.
25 Feb 3.4 05:24:37 10° NNE 05:29:42 68° ESE 05:34:44 10° S visible
25 Feb 6.8 18:23:15 10° W 18:23:50 10° W 18:24:26 10° W visible
26 Feb 5.0 04:48:16 10° NE 04:52:43 30° E 04:57:09 10° SSE visible
27 Feb 6.1 04:13:05 10° ENE 04:15:33 13° E 04:18:01 10° ESE visible
27 Feb 3.0 05:50:01 10° N 05:55:04 70° WNW 06:00:06 10° SSW visible
28 Feb 3.9 05:13:15 10° NNE 05:18:14 53° E 05:23:11 10° S visible
28 Feb 6.5 18:09:48 10° WSW 18:12:16 13° W 18:14:45 10° WNW visible
01 Mar 5.4 04:37:09 10° NE 04:41:13 24° E 04:45:16 10° SSE visible
02 Mar 6.4 04:03:27 10° E 04:03:59 10° E 04:04:31 10° E visible
02 Mar 3.0 05:38:33 10° NNE 05:43:40 88° WNW 05:48:44 10° SSW visible
03 Mar 4.4 05:01:58 10° NNE 05:06:47 41° E 05:11:33 10° SSE visible
04 Mar 5.8 04:26:08 10° NE 04:29:41 19° E 04:33:14 10° SE visible
05 Mar 3.3 05:27:08 10° NNE 05:32:14 73° ESE 05:37:18 10° S visible
06 Mar 4.9 04:50:44 10° NNE 04:55:17 33° E 04:59:49 10° SSE visible
